Location: Bacharowice
(49.9333°N, 19.5833°E)
Time: 11:06:03
(UTC+00:00)

USA 305 - Pass Details

Date: 28 September 2021
Orbit: 547 x 588 km, 54.0° (Epoch: 03 October)

Event Time Altitude Azimuth Distance (km) Brightness Sun altitude
Rises 17:11:38 0° 291° (WNW) 2,739 8.2 -8.1°
Reaches altitude 10° 17:13:53 10° 295° (WNW) 1,849 6.9 -8.5°
Maximum altitude 17:18:04 65° 17° (NNE) 625 3.0 -9.1°
Enters shadow 17:21:45 13° 99° (E) 1,663 4.6 -9.7°
